Weather in Staryy Sibay

Russia / Republic of Bashkortostan     52°42′16″N   58°34′23″E
temp.,
°C
wind,
m/s
gust,
m/s
humid.,
%
clouds,
%
prec.,
mm/h
press.,
hPa
HPBL,
m
8 december, wed
wed823:00−18wsw22936 0.0 104111
02:00−18wsw22925 0.0 104210
05:00−18wsw2292100 0.0 104210
08:00−15sw219259 0.0 104212
11:00−13ssw2390100 0.0 104256
14:00−11ssw3491100 0.0 1042122
17:00−12ssw2391100 0.0 104260
20:00−14ssw3391100 0.0 104247
9 december, thu
thu923:00−14ssw2290100 0.0 104229
02:00−13ssw3585100 0.0 104275
05:00−14ssw2283100 0.0 104134
08:00−15ssw2478100 0.0 104157
11:00−12s3874100 0.0 1040148
14:00−11s3878100 0.0 1039192
17:00−15ssw228576 0.0 103914
20:00−14s228499 0.0 103817
10 december, fri
fri1023:00−13s2579100 0.0 103655
02:00−12s2777100 0.0 1034105
05:00−12s2281100 0.0 103323
08:00−12se1184100 0.0 103110
11:00−9se1379100 0.1 1030103
14:00−7se2379100 0.0 1028130
17:00−10se1189100 0.0 102710
20:00−10nne1191100 0.0 102717
11 december, sat
sat1123:00−11n2290100 0.0 102612
02:00−11n2292100 0.0 102621
05:00−10n3690100 0.0 1026111
08:00−9nne51288100 0.1 1026358
11:00−7nne71494100 0.1 1027561
14:00−8nne61483100 0.0 1028554
17:00−10nne512824 0.0 1030341
20:00−14n35864 0.0 103279
12 december, sun
sun1223:00−15nw32830 0.0 103317
02:00−15nw22790 0.0 103414
05:00−16nw22822 0.0 103612
08:00−17nw22851 0.0 103813
11:00−13nw22841 0.0 103928
14:00−9nnw23833 0.0 103967
17:00−13wnw22842 0.0 104110
20:00−15w22875 0.0 104211